Time,TemperatureF,DewpointF,PressureIn,WindDirection,WindDirectionDegrees,WindSpeedMPH,WindSpeedGustMPH,Humidity,HourlyPrecipIn,Conditions,Clouds,dailyrainin,SoftwareType,DateUTC
2013-03-06 00:00:00,22.0,17.9,29.97,NE,42,0.0,2.0,84,0.00,,,0.00,Wunderground v.1.15,2013-03-06 05:00:00,
2013-03-06 00:05:00,21.9,17.8,29.96,NE,42,0.0,2.0,84,0.00,,,0.00,Wunderground v.1.15,2013-03-06 05:05:00,
2013-03-06 00:10:00,21.7,17.6,29.96,NE,42,0.0,2.0,84,0.00,,,0.00,Wunderground v.1.15,2013-03-06 05:10:00,
2013-03-06 00:15:00,21.5,17.4,29.96,NE,42,0.0,2.0,84,0.00,,,0.00,Wunderground v.1.15,2013-03-06 05:15:00,
2013-03-06 00:20:00,21.2,17.1,29.96,NE,42,0.0,2.0,84,0.00,,,0.00,Wunderground v.1.15,2013-03-06 05:20:00,
2013-03-06 08:25:00,29.2,25.8,30.04,NE,44,0.0,0.0,87,0.00,,,0.00,Wunderground v.1.15,2013-03-06 13:25:00,
2013-03-06 08:35:00,29.7,26.0,30.04,NE,44,0.0,0.0,86,0.00,,,0.00,Wunderground v.1.15,2013-03-06 13:35:00,
2013-03-06 08:40:00,29.9,26.2,30.04,NE,44,0.0,0.0,86,0.00,,,0.00,Wunderground v.1.15,2013-03-06 13:40:00,
2013-03-06 08:50:00,30.6,26.6,30.05,NE,37,0.0,0.0,85,0.00,,,0.00,Wunderground v.1.15,2013-03-06 13:50:00,
2013-03-06 08:55:00,30.9,26.9,30.05,NE,36,0.0,2.0,85,0.00,,,0.00,Wunderground v.1.15,2013-03-06 13:55:00,
2013-03-06 09:00:00,31.1,26.8,30.05,NE,36,0.0,0.0,84,0.00,,,0.00,Wunderground v.1.15,2013-03-06 14:00:00,
2013-03-06 09:05:00,31.4,26.8,30.05,North,360,1.0,1.0,83,0.00,,,0.00,Wunderground v.1.15,2013-03-06 14:05:00,
2013-03-06 09:10:00,31.5,26.9,30.05,North,5,1.0,3.0,83,0.00,,,0.00,Wunderground v.1.15,2013-03-06 14:10:00,
2013-03-06 09:15:00,31.8,26.9,30.05,North,5,1.0,3.0,82,0.00,,,0.00,Wunderground v.1.15,2013-03-06 14:15:00,
2013-03-06 13:05:00,38.8,31.2,30.07,North,349,4.0,6.0,74,0.00,,,0.12,Wunderground v.1.15,2013-03-06 18:05:00,
2013-03-06 13:15:00,38.2,31.3,30.07,NNE,21,3.0,4.0,76,0.00,,,0.12,Wunderground v.1.15,2013-03-06 18:15:00,
2013-03-06 13:25:00,38.1,31.5,30.07,NNE,22,1.0,2.0,77,0.00,,,0.12,Wunderground v.1.15,2013-03-06 18:25:00,
2013-03-06 13:30:00,38.2,31.6,30.07,North,355,2.0,5.0,77,0.00,,,0.12,Wunderground v.1.15,2013-03-06 18:30:00,
2013-03-06 13:35:00,38.2,31.9,30.07,North,360,2.0,5.0,78,0.00,,,0.12,Wunderground v.1.15,2013-03-06 18:35:00,
2013-03-06 13:40:00,38.2,31.9,30.07,North,355,2.0,2.0,78,0.00,,,0.13,Wunderground v.1.15,2013-03-06 18:40:00,
2013-03-06 13:45:00,38.2,31.9,30.07,North,355,2.0,3.0,78,0.00,,,0.13,Wunderground v.1.15,2013-03-06 18:45:00,
2013-03-06 13:50:00,38.3,32.0,30.07,North,360,2.0,2.0,78,0.00,,,0.13,Wunderground v.1.15,2013-03-06 18:50:00,
2013-03-06 13:55:00,38.3,31.7,30.07,NNW,348,2.0,3.0,77,0.00,,,0.13,Wunderground v.1.15,2013-03-06 18:55:00,
2013-03-06 14:05:00,38.0,31.4,30.07,North,9,4.0,12.0,77,0.00,,,0.13,Wunderground v.1.15,2013-03-06 19:05:00,
2013-03-06 14:10:00,38.0,31.7,30.07,NNE,23,3.0,3.0,78,0.00,,,0.13,Wunderground v.1.15,2013-03-06 19:10:00,
2013-03-06 14:15:00,38.0,31.7,30.07,NNW,344,3.0,12.0,78,0.00,,,0.13,Wunderground v.1.15,2013-03-06 19:15:00,
2013-03-06 14:25:00,37.7,31.5,30.07,NNE,20,3.0,12.0,78,0.00,,,0.14,Wunderground v.1.15,2013-03-06 19:25:00,
2013-03-06 14:30:00,37.6,31.7,30.07,North,351,3.0,12.0,79,0.00,,,0.14,Wunderground v.1.15,2013-03-06 19:30:00,
2013-03-06 14:35:00,37.6,31.7,30.07,NE,54,2.0,12.0,79,0.00,,,0.14,Wunderground v.1.15,2013-03-06 19:35:00,
2013-03-06 14:40:00,37.5,31.6,30.07,NNE,19,2.0,12.0,79,0.00,,,0.14,Wunderground v.1.15,2013-03-06 19:40:00,
2013-03-06 14:50:00,37.4,31.8,30.07,North,11,1.0,12.0,80,0.00,,,0.14,Wunderground v.1.15,2013-03-06 19:50:00,
2013-03-06 14:55:00,37.3,31.7,30.07,North,349,2.0,12.0,80,0.00,,,0.14,Wunderground v.1.15,2013-03-06 19:55:00,
2013-03-06 15:00:00,37.3,31.7,30.07,North,349,3.0,3.0,80,0.00,,,0.14,Wunderground v.1.15,2013-03-06 20:00:00,
2013-03-06 15:05:00,37.3,31.7,30.08,North,355,2.0,12.0,80,0.00,,,0.14,Wunderground v.1.15,2013-03-06 20:05:00,
2013-03-06 15:10:00,37.3,31.7,30.08,NNE,33,2.0,12.0,80,0.00,,,0.14,Wunderground v.1.15,2013-03-06 20:10:00,
2013-03-06 15:15:00,37.2,31.6,30.07,North,10,2.0,12.0,80,0.00,,,0.14,Wunderground v.1.15,2013-03-06 20:15:00,
2013-03-06 15:20:00,37.2,31.6,30.08,North,5,2.0,12.0,80,0.00,,,0.14,Wunderground v.1.15,2013-03-06 20:20:00,
2013-03-06 15:30:00,37.1,31.5,30.08,North,360,2.0,2.0,80,0.00,,,0.14,Wunderground v.1.15,2013-03-06 20:30:00,
2013-03-06 15:35:00,37.1,31.5,30.08,NNE,17,2.0,12.0,80,0.00,,,0.14,Wunderground v.1.15,2013-03-06 20:35:00,
2013-03-06 15:40:00,37.2,31.6,30.08,North,355,2.0,2.0,80,0.00,,,0.14,Wunderground v.1.15,2013-03-06 20:40:00,
2013-03-06 15:45:00,37.3,31.7,30.08,NNE,25,1.0,12.0,80,0.00,,,0.14,Wunderground v.1.15,2013-03-06 20:45:00,
2013-03-06 15:50:00,37.3,31.7,30.08,North,360,2.0,2.0,80,0.00,,,0.14,Wunderground v.1.15,2013-03-06 20:50:00,
2013-03-06 15:55:00,37.2,31.6,30.08,NNE,26,2.0,12.0,80,0.00,,,0.14,Wunderground v.1.15,2013-03-06 20:55:00,
2013-03-06 16:00:00,37.1,31.5,30.08,North,5,2.0,2.0,80,0.00,,,0.14,Wunderground v.1.15,2013-03-06 21:00:00,
2013-03-06 16:05:00,37.1,31.5,30.08,NNE,25,2.0,12.0,80,0.00,,,0.14,Wunderground v.1.15,2013-03-06 21:05:00,
2013-03-06 16:15:00,36.9,31.3,30.09,NNW,337,2.0,12.0,80,0.00,,,0.15,Wunderground v.1.15,2013-03-06 21:15:00,
2013-03-06 16:20:00,36.7,31.1,30.08,NNE,25,2.0,2.0,80,0.00,,,0.15,Wunderground v.1.15,2013-03-06 21:20:00,
2013-03-06 16:25:00,36.6,31.0,30.08,North,360,2.0,12.0,80,0.00,,,0.15,Wunderground v.1.15,2013-03-06 21:25:00,
2013-03-06 16:30:00,36.6,31.3,30.09,North,5,2.0,2.0,81,0.00,,,0.15,Wunderground v.1.15,2013-03-06 21:30:00,
2013-03-06 16:40:00,36.6,31.3,30.09,North,355,1.0,12.0,81,0.00,,,0.15,Wunderground v.1.15,2013-03-06 21:40:00,
2013-03-06 16:45:00,36.6,31.3,30.09,NNW,346,2.0,12.0,81,0.00,,,0.15,Wunderground v.1.15,2013-03-06 21:45:00,
2013-03-06 16:50:00,36.6,31.3,30.10,NNE,22,2.0,2.0,81,0.00,,,0.15,Wunderground v.1.15,2013-03-06 21:50:00,
2013-03-06 16:55:00,36.5,31.2,30.09,NNE,32,2.0,12.0,81,0.00,,,0.15,Wunderground v.1.15,2013-03-06 21:55:00,
2013-03-06 17:00:00,36.5,31.2,30.10,NNE,15,1.0,1.0,81,0.00,,,0.15,Wunderground v.1.15,2013-03-06 22:00:00,
2013-03-06 17:05:00,36.4,31.1,30.10,North,355,1.0,2.0,81,0.00,,,0.15,Wunderground v.1.15,2013-03-06 22:05:00,
2013-03-06 17:10:00,36.4,31.4,30.10,NNE,19,1.0,12.0,82,0.00,,,0.15,Wunderground v.1.15,2013-03-06 22:10:00,
2013-03-06 17:15:00,36.3,31.3,30.10,NNW,348,1.0,12.0,82,0.00,,,0.15,Wunderground v.1.15,2013-03-06 22:15:00,
2013-03-06 17:20:00,36.3,31.3,30.10,North,360,2.0,2.0,82,0.00,,,0.15,Wunderground v.1.15,2013-03-06 22:20:00,
2013-03-06 17:30:00,36.2,30.9,30.10,NE,53,1.0,1.0,81,0.00,,,0.15,Wunderground v.1.15,2013-03-06 22:30:00,
2013-03-06 17:35:00,36.2,31.2,30.11,NE,53,1.0,12.0,82,0.00,,,0.15,Wunderground v.1.15,2013-03-06 22:35:00,
2013-03-06 17:40:00,36.1,31.1,30.11,NE,53,0.0,12.0,82,0.00,,,0.15,Wunderground v.1.15,2013-03-06 22:40:00,
2013-03-06 17:45:00,36.0,31.0,30.11,North,355,1.0,12.0,82,0.00,,,0.15,Wunderground v.1.15,2013-03-06 22:45:00,
2013-03-06 17:50:00,36.0,31.0,30.11,North,5,1.0,1.0,82,0.00,,,0.15,Wunderground v.1.15,2013-03-06 22:50:00,
2013-03-06 17:55:00,35.9,30.9,30.11,North,350,1.0,12.0,82,0.00,,,0.15,Wunderground v.1.15,2013-03-06 22:55:00,
2013-03-06 18:05:00,35.9,30.9,30.11,North,5,1.0,12.0,82,0.00,,,0.15,Wunderground v.1.15,2013-03-06 23:05:00,
2013-03-06 18:10:00,35.8,30.8,30.11,North,351,1.0,1.0,82,0.00,,,0.15,Wunderground v.1.15,2013-03-06 23:10:00,
2013-03-06 18:15:00,35.8,30.8,30.11,North,355,1.0,12.0,82,0.00,,,0.15,Wunderground v.1.15,2013-03-06 23:15:00,
2013-03-06 18:20:00,35.7,31.0,30.12,North,11,1.0,1.0,83,0.00,,,0.15,Wunderground v.1.15,2013-03-06 23:20:00,
2013-03-06 18:30:00,35.8,30.8,30.12,North,9,1.0,1.0,82,0.00,,,0.15,Wunderground v.1.15,2013-03-06 23:30:00,
2013-03-06 18:40:00,35.6,30.6,30.12,North,9,0.0,12.0,82,0.00,,,0.15,Wunderground v.1.15,2013-03-06 23:40:00,
2013-03-06 18:50:00,35.7,31.0,30.13,NNE,17,1.0,1.0,83,0.00,,,0.15,Wunderground v.1.15,2013-03-06 23:50:00,
2013-03-06 18:55:00,35.7,31.0,30.13,North,360,1.0,12.0,83,0.00,,,0.15,Wunderground v.1.15,2013-03-06 23:55:00,
2013-03-06 19:00:00,35.7,30.7,30.13,NNE,15,1.0,1.0,82,0.00,,,0.15,Wunderground v.1.15,2013-03-07 00:00:00,
2013-03-06 19:05:00,35.7,31.0,30.13,North,360,1.0,12.0,83,0.00,,,0.15,Wunderground v.1.15,2013-03-07 00:05:00,
2013-03-06 19:10:00,35.7,31.0,30.13,North,5,1.0,12.0,83,0.00,,,0.15,Wunderground v.1.15,2013-03-07 00:10:00,
2013-03-06 19:15:00,35.7,31.0,30.13,NNW,336,1.0,12.0,83,0.00,,,0.15,Wunderground v.1.15,2013-03-07 00:15:00,
2013-03-06 19:20:00,35.8,30.8,30.13,NNE,13,2.0,12.0,82,0.00,,,0.15,Wunderground v.1.15,2013-03-07 00:20:00,
2013-03-06 19:30:00,36.0,31.0,30.13,North,350,2.0,2.0,82,0.00,,,0.15,Wunderground v.1.15,2013-03-07 00:30:00,
2013-03-06 19:35:00,36.0,31.0,30.12,ENE,60,2.0,12.0,82,0.00,,,0.15,Wunderground v.1.15,2013-03-07 00:35:00,
2013-03-06 19:40:00,36.0,31.0,30.13,North,5,2.0,2.0,82,0.00,,,0.15,Wunderground v.1.15,2013-03-07 00:40:00,
2013-03-06 19:50:00,35.9,30.9,30.13,North,355,1.0,12.0,82,0.00,,,0.15,Wunderground v.1.15,2013-03-07 00:50:00,
2013-03-06 19:55:00,36.0,31.0,30.12,North,11,2.0,12.0,82,0.00,,,0.15,Wunderground v.1.15,2013-03-07 00:55:00,
2013-03-06 20:00:00,35.9,30.9,30.12,NNE,17,2.0,2.0,82,0.00,,,0.15,Wunderground v.1.15,2013-03-07 01:00:00,
2013-03-06 20:05:00,35.9,30.9,30.12,North,5,1.0,12.0,82,0.00,,,0.15,Wunderground v.1.15,2013-03-07 01:05:00,
2013-03-06 20:10:00,35.8,31.1,30.12,NNW,347,1.0,1.0,83,0.00,,,0.15,Wunderground v.1.15,2013-03-07 01:10:00,
2013-03-06 20:15:00,35.7,31.0,30.12,NNW,347,1.0,12.0,83,0.00,,,0.15,Wunderground v.1.15,2013-03-07 01:15:00,
2013-03-06 20:20:00,35.6,30.9,30.12,NNE,18,1.0,1.0,83,0.00,,,0.15,Wunderground v.1.15,2013-03-07 01:20:00,
2013-03-06 20:25:00,35.5,30.8,30.12,North,5,1.0,12.0,83,0.00,,,0.15,Wunderground v.1.15,2013-03-07 01:25:00,
2013-03-06 20:40:00,35.2,30.9,30.12,North,5,0.0,12.0,84,0.00,,,0.15,Wunderground v.1.15,2013-03-07 01:40:00,
2013-03-06 20:45:00,35.1,30.8,30.12,North,5,0.0,12.0,84,0.00,,,0.15,Wunderground v.1.15,2013-03-07 01:45:00,
2013-03-06 20:50:00,35.1,31.0,30.12,North,5,0.0,12.0,85,0.00,,,0.15,Wunderground v.1.15,2013-03-07 01:50:00,
2013-03-06 20:55:00,35.0,30.9,30.12,North,5,0.0,12.0,85,0.00,,,0.15,Wunderground v.1.15,2013-03-07 01:55:00,
2013-03-06 21:05:00,34.9,30.8,30.12,North,5,0.0,12.0,85,0.00,,,0.15,Wunderground v.1.15,2013-03-07 02:05:00,
2013-03-06 21:10:00,34.8,30.8,30.12,North,5,0.0,12.0,85,0.00,,,0.15,Wunderground v.1.15,2013-03-07 02:10:00,
2013-03-06 21:15:00,34.8,30.8,30.12,North,5,0.0,12.0,85,0.00,,,0.15,Wunderground v.1.15,2013-03-07 02:15:00,
2013-03-06 21:20:00,34.7,30.9,30.12,North,5,0.0,12.0,86,0.00,,,0.15,Wunderground v.1.15,2013-03-07 02:20:00,
2013-03-06 21:25:00,34.7,30.9,30.12,North,5,0.0,12.0,86,0.00,,,0.15,Wunderground v.1.15,2013-03-07 02:25:00,
2013-03-06 21:30:00,34.8,31.0,30.12,NNE,16,1.0,1.0,86,0.00,,,0.15,Wunderground v.1.15,2013-03-07 02:30:00,
2013-03-06 21:35:00,34.8,31.0,30.12,NNE,17,1.0,12.0,86,0.00,,,0.15,Wunderground v.1.15,2013-03-07 02:35:00,
2013-03-06 21:40:00,34.7,30.7,30.12,NNE,17,0.0,12.0,85,0.00,,,0.15,Wunderground v.1.15,2013-03-07 02:40:00,
2013-03-06 21:50:00,34.6,30.6,30.12,NNE,13,0.0,12.0,85,0.00,,,0.15,Wunderground v.1.15,2013-03-07 02:50:00,
2013-03-06 21:55:00,34.5,30.5,30.12,NNE,13,0.0,12.0,85,0.00,,,0.15,Wunderground v.1.15,2013-03-07 02:55:00,
2013-03-06 22:00:00,34.4,30.6,30.12,NNE,13,0.0,12.0,86,0.00,,,0.15,Wunderground v.1.15,2013-03-07 03:00:00,
2013-03-06 22:05:00,34.4,30.6,30.12,NNE,13,0.0,12.0,86,0.00,,,0.15,Wunderground v.1.15,2013-03-07 03:05:00,
2013-03-06 22:10:00,34.4,30.6,30.12,NNE,13,0.0,12.0,86,0.00,,,0.15,Wunderground v.1.15,2013-03-07 03:10:00,
2013-03-06 22:15:00,34.4,30.6,30.12,NNE,13,0.0,12.0,86,0.00,,,0.15,Wunderground v.1.15,2013-03-07 03:15:00,
2013-03-06 22:20:00,34.4,30.6,30.12,NNE,13,0.0,12.0,86,0.00,,,0.15,Wunderground v.1.15,2013-03-07 03:20:00,
2013-03-06 22:30:00,34.3,30.5,30.12,NNE,13,0.0,12.0,86,0.00,,,0.15,Wunderground v.1.15,2013-03-07 03:30:00,
2013-03-06 22:35:00,34.3,30.5,30.12,NNE,13,0.0,12.0,86,0.00,,,0.15,Wunderground v.1.15,2013-03-07 03:35:00,
2013-03-06 22:40:00,34.3,30.5,30.12,NNE,13,0.0,12.0,86,0.00,,,0.15,Wunderground v.1.15,2013-03-07 03:40:00,
2013-03-06 22:50:00,34.2,30.4,30.12,NNE,13,0.0,12.0,86,0.00,,,0.15,Wunderground v.1.15,2013-03-07 03:50:00,
2013-03-06 22:55:00,34.1,30.4,30.12,NNE,13,0.0,12.0,86,0.00,,,0.15,Wunderground v.1.15,2013-03-07 03:55:00,
2013-03-06 23:00:00,34.0,30.3,30.12,NNE,13,0.0,12.0,86,0.00,,,0.15,Wunderground v.1.15,2013-03-07 04:00:00,
2013-03-06 23:05:00,34.0,30.3,30.12,NNE,13,0.0,12.0,86,0.00,,,0.15,Wunderground v.1.15,2013-03-07 04:05:00,
2013-03-06 23:10:00,33.9,30.2,30.12,NNE,13,0.0,12.0,86,0.00,,,0.15,Wunderground v.1.15,2013-03-07 04:10:00,
2013-03-06 23:15:00,33.9,30.2,30.12,NNE,13,0.0,12.0,86,0.00,,,0.15,Wunderground v.1.15,2013-03-07 04:15:00,
2013-03-06 23:20:00,33.9,30.2,30.12,NNE,13,0.0,12.0,86,0.00,,,0.15,Wunderground v.1.15,2013-03-07 04:20:00,
2013-03-06 23:30:00,34.0,30.5,30.12,NNE,13,0.0,12.0,87,0.00,,,0.15,Wunderground v.1.15,2013-03-07 04:30:00,
2013-03-06 23:35:00,34.0,30.3,30.12,NNE,13,0.0,12.0,86,0.00,,,0.15,Wunderground v.1.15,2013-03-07 04:35:00,
2013-03-06 23:40:00,34.0,30.3,30.12,NNE,13,0.0,12.0,86,0.00,,,0.15,Wunderground v.1.15,2013-03-07 04:40:00,
2013-03-06 23:45:00,33.9,30.2,30.12,NNE,13,0.0,12.0,86,0.00,,,0.15,Wunderground v.1.15,2013-03-07 04:45:00,
2013-03-06 23:50:00,33.9,30.4,30.12,NNE,13,0.0,12.0,87,0.00,,,0.15,Wunderground v.1.15,2013-03-07 04:50:00,
2013-03-06 23:55:00,33.9,30.4,30.12,NNE,13,0.0,12.0,87,0.00,,,0.15,Wunderground v.1.15,2013-03-07 04:55:00,